Torna al catalogo

STARLINK-32490

AttivoComunicazioniVLEO
NORAD 62126·PAYLOAD·🇺🇸 United States

Lanciato Nov 27, 2024 da Cape Canaveral Space Force Station

Loading…

Prossimi Passaggi (prossime 24 ore)

TLE

AggiornatoSource: CelesTrak SupGP

Epoca: Sep 14, 2026, 20:53 UTC

1 62126C 24222N   26257.87062500 -.00013666  00000+0 -49514-3 0  2575
2 62126  42.9993 147.4629 0001253 266.4898 162.4619 15.27575014    19

Traccia STARLINK-32490 in tempo reale con AllMySat

Download on the App Store